Tracking 19570 objects as of 22-Feb-2019
HD Live streaming from Space Station
objects crossing your sky now

COSMOS 1823 DEB

Track COSMOS 1823 DEB now!
10-day predictions


NORAD ID: 18753
Int'l Code: 1987-020AE
Perigee: 1,471.3 km
Apogee: 1,511.9 km
Inclination: 73.4 °
Period: 115.6 minutes
Semi major axis: 7862 km
RCS: 0.1736 m2 (medium)
Launch date: February 20, 1987
Source: Commonwealth of Independent States (former USSR) (CIS)
Launch site: PLESETSK MISSILE AND SPACE COMPLEX (PKMTR)

Note: This is SATELLITE DEBRIS
aabbcc
Your satellite tracking list
Your tracking list is empty




NASA's NSSDC Master Catalog

Two Line Element Set (TLE):
1 18753U 87020AE  19053.15063490  .00000039  00000-0  40131-3 0  9991
2 18753  73.4489 163.3484 0025830 232.1788 197.1543 12.45243627416512
Source of the keplerian elements: AFSPC